Weather History for K06D - February, 2014

Change the Weather History Date:

Monday, February 17, 2014

  Actual Average (KRUG) Record (KRUG)
Temperature  
Mean Temperature 23 °F -  
Max Temperature 32 °F 23 °F 51 °F (1981)
Min Temperature 14 °F 4 °F -27 °F (1956)
Degree Days  
Heating Degree Days 42    
Moisture  
Dew Point 20 °F    
Average Humidity 85    
Maximum Humidity 100    
Minimum Humidity 69    
Precipitation  
Precipitation 0.00 in - - ()
Sea Level Pressure  
Sea Level Pressure 29.50 in    
Wind  
Wind Speed 14 mph (SW)    
Max Wind Speed 23 mph    
Max Gust Speed 29 mph    
Visibility 10 miles    
Events      
Averages and records for this station are not official NWS values.
T = Trace of Precipitation, MM = Missing Value Source: NWS Daily Summary

Daily Weather History Graph

Daily Weather History Graph

Search for Another Location

Airport or City:

Trip Planner

Search our weather history database for the weather conditions in past years. The results will help you decide how hot, cold, wet, or windy it might be!

Date:

Astronomy

Feb. 17, 2014 Rise Set
Actual Time 7:42 AM CST 6:02 PM CST
Civil Twilight 7:10 AM CST 6:35 PM CST
Nautical Twilight 6:33 AM CST 7:12 PM CST
Astronomical Twilight 5:57 AM CST 7:48 PM CST
Moon 9:18 PM CST (2/17) 8:27 AM CST (2/17)
Length of Visible Light 11h 24m
Length of Day
10h 19m
Waning Gibbous, 93% of the Moon is Illuminated
Feb 17
Waning Gibbous
Feb 22
Last Quarter
Mar 1
New
Mar 8
First Quarter
Mar 16
Full

Hourly Weather History & Observations

Time (CST) Temp. Windchill Dew Point Humidity Pressure Visibility Wind Dir Wind Speed Gust Speed Precip Events Conditions
12:15 AM 14.0 °F -0.2 °F 14.0 °F 100% 29.58 in 10.0 mi South 12.7 mph - N/A   Overcast
12:35 AM 14.0 °F -0.8 °F 14.0 °F 100% 29.58 in 8.0 mi South 13.8 mph - N/A   Overcast
12:55 AM 14.0 °F -0.8 °F 14.0 °F 100% 29.57 in 10.0 mi SSW 13.8 mph 17.3 mph N/A   Overcast
1:15 AM 14.0 °F -2.0 °F 14.0 °F 100% 29.57 in 10.0 mi SSW 16.1 mph - N/A   Overcast
1:35 AM 14.0 °F -2.0 °F 14.0 °F 100% 29.56 in 9.0 mi SSW 16.1 mph - N/A   Overcast
1:55 AM 15.8 °F 0.3 °F 14.0 °F 93% 29.55 in 10.0 mi SSW 16.1 mph - N/A   Overcast
2:15 AM 15.8 °F 1.4 °F 15.8 °F 100% 29.56 in 10.0 mi SSW 13.8 mph - N/A   Overcast
2:35 AM 15.8 °F 0.9 °F 15.8 °F 100% 29.55 in 10.0 mi SW 15.0 mph - N/A   Overcast
2:55 AM 15.8 °F 0.9 °F 15.8 °F 100% 29.54 in 10.0 mi SW 15.0 mph - N/A   Overcast
3:15 AM 15.8 °F 4.2 °F 15.8 °F 100% 29.53 in 10.0 mi SSW 9.2 mph - N/A   Overcast
3:35 AM 15.8 °F 6.1 °F 15.8 °F 100% 29.54 in 10.0 mi SSW 6.9 mph - N/A   Overcast
3:55 AM 15.8 °F 6.1 °F 15.8 °F 100% 29.53 in 10.0 mi SSW 6.9 mph - N/A   Overcast
4:15 AM 15.8 °F 7.2 °F 15.8 °F 100% 29.53 in 10.0 mi SSW 5.8 mph - N/A   Overcast
4:35 AM 17.6 °F 4.3 °F 17.6 °F 100% 29.52 in 10.0 mi WSW 12.7 mph - N/A   Overcast
4:55 AM 17.6 °F 6.4 °F 17.6 °F 100% 29.52 in 10.0 mi SW 9.2 mph - N/A   Overcast
5:15 AM 19.4 °F 12.8 °F 19.4 °F 100% 29.52 in 10.0 mi SSW 4.6 mph - N/A   Mostly Cloudy
5:35 AM 23.0 °F 11.7 °F 19.4 °F 86% 29.52 in 10.0 mi West 11.5 mph - N/A   Mostly Cloudy
5:55 AM 23.0 °F 9.6 °F 19.4 °F 86% 29.53 in 10.0 mi West 16.1 mph - N/A   Scattered Clouds
6:15 AM 24.8 °F 11.1 °F 21.2 °F 86% 29.54 in 10.0 mi WNW 18.4 mph - N/A   Scattered Clouds
6:35 AM 24.8 °F 11.9 °F 21.2 °F 86% 29.55 in 10.0 mi NW 16.1 mph - N/A   Partly Cloudy
6:55 AM 26.6 °F 12.7 °F 23.0 °F 86% 29.55 in 10.0 mi NW 20.7 mph 26.5 mph N/A   Clear
7:15 AM 26.6 °F 12.4 °F 23.0 °F 86% 29.54 in 10.0 mi NW 21.9 mph 28.8 mph N/A   Clear
7:35 AM 24.8 °F 9.6 °F 23.0 °F 93% 29.55 in 10.0 mi NW 23.0 mph - N/A   Clear
7:55 AM 24.8 °F 10.0 °F 21.2 °F 86% 29.55 in 10.0 mi NW 21.9 mph - N/A   Clear
8:15 AM 24.8 °F 10.3 °F 21.2 °F 86% 29.56 in 10.0 mi NW 20.7 mph 26.5 mph N/A   Clear
8:35 AM 24.8 °F 11.9 °F 19.4 °F 80% 29.57 in 10.0 mi NW 16.1 mph - N/A   Clear
8:55 AM 24.8 °F 12.9 °F 19.4 °F 80% 29.58 in 10.0 mi NW 13.8 mph - N/A   Clear
9:15 AM 24.8 °F 14.6 °F 19.4 °F 80% 29.57 in 10.0 mi NW 10.4 mph - N/A   Clear
9:35 AM 24.8 °F 13.4 °F 19.4 °F 80% 29.58 in 10.0 mi NW 12.7 mph - N/A   Clear
9:55 AM 26.6 °F 16.2 °F 19.4 °F 74% 29.58 in 10.0 mi WNW 11.5 mph - N/A   Clear
10:15 AM 26.6 °F 19.1 °F 19.4 °F 74% 29.58 in 10.0 mi West 6.9 mph - N/A   Clear
10:35 AM 26.6 °F - 19.4 °F 74% 29.58 in 10.0 mi Calm Calm - N/A   Clear
10:55 AM 24.8 °F 14.0 °F 19.4 °F 80% 29.58 in 10.0 mi South 11.5 mph - N/A   Clear
11:15 AM 24.8 °F 14.0 °F 19.4 °F 80% 29.58 in 10.0 mi South 11.5 mph - N/A   Clear
11:35 AM 28.4 °F 18.0 °F 21.2 °F 74% 29.56 in 10.0 mi SW 12.7 mph - N/A   Clear
11:55 AM 26.6 °F 13.4 °F 19.4 °F 74% 29.56 in 10.0 mi SW 18.4 mph - N/A   Clear
12:15 PM 26.6 °F 15.2 °F 19.4 °F 74% 29.55 in 10.0 mi SSW 13.8 mph - N/A   Clear
12:35 PM 24.8 °F 11.5 °F 19.4 °F 80% 29.55 in 10.0 mi SW 17.3 mph - N/A   Clear
12:55 PM 26.6 °F 14.7 °F 21.2 °F 80% 29.53 in 10.0 mi SW 15.0 mph - N/A   Clear
1:15 PM 26.6 °F 14.3 °F 21.2 °F 80% 29.53 in 10.0 mi SW 16.1 mph - N/A   Clear
1:35 PM 28.4 °F 16.2 °F 21.2 °F 74% 29.52 in 10.0 mi SW 17.3 mph - N/A   Clear
1:55 PM 28.4 °F 15.4 °F 21.2 °F 74% 29.52 in 10.0 mi WSW 19.6 mph - N/A   Clear
2:15 PM 30.2 °F 17.4 °F 23.0 °F 75% 29.50 in 10.0 mi WSW 20.7 mph 26.5 mph N/A   Clear
2:35 PM 32.0 °F 20.1 °F 23.0 °F 69% 29.50 in 10.0 mi WSW 19.6 mph - N/A   Clear
2:55 PM 30.2 °F 19.3 °F 23.0 °F 75% 29.49 in 10.0 mi SW 15.0 mph - N/A   Clear
3:15 PM 30.2 °F 19.3 °F 23.0 °F 75% 29.49 in 10.0 mi WSW 15.0 mph - N/A   Clear
3:35 PM 32.0 °F 23.6 °F 23.0 °F 69% 29.48 in 10.0 mi SSW 10.4 mph - N/A   Clear
3:55 PM 32.0 °F 21.6 °F 23.0 °F 69% 29.47 in 10.0 mi SSW 15.0 mph - N/A   Clear
4:15 PM 28.4 °F 18.5 °F 23.0 °F 80% 29.47 in 10.0 mi SSW 11.5 mph - N/A   Clear
4:35 PM 26.6 °F 16.2 °F 21.2 °F 80% 29.48 in 10.0 mi SSW 11.5 mph - N/A   Clear
4:55 PM 26.6 °F 16.8 °F 21.2 °F 80% 29.46 in 10.0 mi SW 10.4 mph - N/A   Clear
5:15 PM 24.8 °F 16.1 °F 19.4 °F 80% 29.45 in 10.0 mi SSW 8.1 mph - N/A   Clear
5:35 PM 24.8 °F 16.1 °F 19.4 °F 80% 29.45 in 10.0 mi South 8.1 mph - N/A   Clear
5:55 PM 24.8 °F 16.9 °F 19.4 °F 80% 29.45 in 10.0 mi SSW 6.9 mph - N/A   Clear
6:15 PM 23.0 °F 13.9 °F 17.6 °F 80% 29.44 in 10.0 mi South 8.1 mph - N/A   Clear
6:35 PM 21.2 °F 11.7 °F 17.6 °F 86% 29.44 in 10.0 mi South 8.1 mph - N/A   Clear
6:55 PM 19.4 °F 11.5 °F 17.6 °F 93% 29.44 in 10.0 mi SSW 5.8 mph - N/A   Clear
7:15 PM 17.6 °F 8.2 °F 17.6 °F 100% 29.42 in 10.0 mi South 6.9 mph - N/A   Clear
7:35 PM 19.4 °F 8.6 °F 17.6 °F 93% 29.41 in 10.0 mi SSW 9.2 mph - N/A   Clear
7:55 PM 17.6 °F 10.7 °F 15.8 °F 93% 29.41 in 10.0 mi ESE 4.6 mph - N/A   Clear
8:15 PM 19.4 °F 14.3 °F 17.6 °F 93% 29.41 in 10.0 mi SSE 3.5 mph - N/A   Clear
8:35 PM 19.4 °F 8.6 °F 17.6 °F 93% 29.40 in 10.0 mi SSW 9.2 mph - N/A   Mostly Cloudy
8:55 PM 24.8 °F 12.4 °F 21.2 °F 86% 29.40 in 10.0 mi SW 15.0 mph - N/A   Overcast
9:15 PM 28.4 °F 15.8 °F 24.8 °F 86% 29.38 in 10.0 mi WSW 18.4 mph - N/A   Overcast
9:35 PM 30.2 °F 17.4 °F 24.8 °F 80% 29.38 in 10.0 mi WSW 20.7 mph - N/A   Mostly Cloudy
9:55 PM 30.2 °F 17.1 °F 24.8 °F 80% 29.37 in 10.0 mi WSW 21.9 mph - N/A   Clear
10:15 PM 30.2 °F 16.8 °F 24.8 °F 80% 29.37 in 10.0 mi WSW 23.0 mph - N/A   Clear
10:35 PM 32.0 °F 19.8 °F 24.8 °F 75% 29.37 in 10.0 mi WSW 20.7 mph - N/A   Clear
10:55 PM 32.0 °F 20.1 °F 24.8 °F 75% 29.37 in 10.0 mi WSW 19.6 mph - N/A   Clear
11:15 PM 28.4 °F 17.0 °F 23.0 °F 80% 29.37 in 10.0 mi West 15.0 mph - N/A   Clear
11:35 PM 32.0 °F 20.8 °F 24.8 °F 75% 29.38 in 10.0 mi West 17.3 mph - N/A   Clear
11:55 PM 32.0 °F 20.8 °F 24.8 °F 75% 29.38 in 10.0 mi West 17.3 mph - N/A   Clear